Little Rock AFB, AR

8:06 PM CST on December 03, 2016 (GMT -0600)
Little Rock Air Force Base

Weather History for KLRF - June, 2013

Change the Weather History Date:

Friday, June 21, 2013

  Actual Average Record
Temperature  
Mean Temperature 82 °F -  
Max Temperature 93 °F 89 °F 100 °F (1998)
Min Temperature 70 °F 66 °F 55 °F (1976)
Cooling Degree Days 16    
Growing Degree Days 32 (Base 50)    
Moisture  
Dew Point 72 °F    
Average Humidity 71    
Maximum Humidity 96    
Minimum Humidity 49    
Precipitation  
Precipitation 0.00 in - - ()
Sea Level Pressure  
Sea Level Pressure 30.08 in    
Wind  
Wind Speed 3 mph (SE)    
Max Wind Speed 8 mph    
Max Gust Speed -    
Visibility 10 miles    
Events      
Averages and records for this station are not official NWS values.
T = Trace of Precipitation, MM = Missing Value Source: NWS Daily Summary

Daily Weather History Graph

Daily Weather History Graph

Search for Another Location

Airport or City:

Trip Planner

Search our weather history database for the weather conditions in past years. The results will help you decide how hot, cold, wet, or windy it might be!

Date:

Astronomy

Jun. 21, 2013 Rise Set
Actual Time 5:55 AM CDT 8:25 PM CDT
Civil Twilight 5:25 AM CDT 8:55 PM CDT
Nautical Twilight 4:48 AM CDT 9:32 PM CDT
Astronomical Twilight 4:08 AM CDT 10:12 PM CDT
Moon 6:39 PM CDT (6/21) 4:07 AM CDT (6/21)
Length of Visible Light 15h 29m
Length of Day
14h 30m
Waxing Gibbous, 95% of the Moon is Illuminated
Jun 21
Waxing Gibbous
Jun 23
Full
Jun 29
Last Quarter
Jul 8
New
Jul 15
First Quarter

Hourly Weather History & Observations

Time (CDT) Temp. Heat Index Dew Point Humidity Pressure Visibility Wind Dir Wind Speed Gust Speed Precip Events Conditions
12:58 AM 74.3 °F - 69.3 °F 84% 30.09 in 10.0 mi Calm Calm - N/A   Clear
1:58 AM 73.2 °F - 68.9 °F 86% 30.09 in 10.0 mi NE 2.3 mph - N/A   Clear
2:58 AM 72.5 °F - 69.3 °F 90% 30.08 in 10.0 mi Calm Calm - N/A   Clear
3:58 AM 71.1 °F - 69.3 °F 94% 30.08 in 10.0 mi NE 1.2 mph - N/A   Clear
4:58 AM 71.2 °F - 69.3 °F 93% 30.08 in 10.0 mi Calm Calm - N/A   Partly Cloudy
5:58 AM 70.5 °F - 69.3 °F 96% 30.09 in 10.0 mi ENE 2.3 mph - N/A   Scattered Clouds
6:58 AM 72.7 °F - 70.3 °F 92% 30.10 in 10.0 mi NE 2.3 mph - N/A   Partly Cloudy
7:58 AM 78.3 °F - 71.2 °F 79% 30.11 in 10.0 mi East 2.3 mph - N/A   Clear
8:58 AM 82.4 °F 87.4 °F 72.3 °F 71% 30.13 in 10.0 mi East 2.3 mph - N/A   Clear
9:58 AM 85.8 °F 93.0 °F 73.4 °F 66% 30.14 in 10.0 mi Variable 2.3 mph - N/A   Clear
10:58 AM 88.3 °F 96.4 °F 73.4 °F 61% 30.14 in 10.0 mi SE 5.8 mph - N/A   Clear
11:58 AM 90.1 °F 98.3 °F 73.2 °F 57% 30.13 in 10.0 mi Variable 4.6 mph - N/A   Scattered Clouds
12:58 PM 91.4 °F 98.4 °F 71.6 °F 52% 30.11 in 10.0 mi SSE 5.8 mph - N/A   Scattered Clouds
1:58 PM 91.9 °F 99.5 °F 71.8 °F 52% 30.10 in 10.0 mi ESE 8.1 mph - N/A   Scattered Clouds
2:58 PM 91.4 °F 98.9 °F 72.3 °F 53% 30.09 in 10.0 mi ESE 8.1 mph - N/A   Clear
3:58 PM 91.2 °F 98.0 °F 71.2 °F 52% 30.07 in 10.0 mi ESE 5.8 mph - N/A   Clear
4:58 PM 93.2 °F 100.5 °F 71.4 °F 49% 30.06 in 10.0 mi SSE 8.1 mph - N/A   Clear
5:58 PM 90.7 °F 96.4 °F 70.2 °F 51% 30.05 in 10.0 mi South 3.5 mph - N/A   Clear
6:58 PM 90.0 °F 97.9 °F 73.0 °F 57% 30.04 in 10.0 mi South 6.9 mph - N/A   Clear
7:58 PM 87.4 °F 94.8 °F 73.0 °F 62% 30.05 in 10.0 mi SSE 1.2 mph - N/A   Clear
8:28 PM 86.0 °F 93.4 °F 73.4 °F 66% 30.05 in 10.0 mi South 3.5 mph - N/A   Light Drizzle
8:38 PM 84.2 °F 90.9 °F 73.4 °F 70% 30.05 in 10.0 mi SSE 2.3 mph - N/A   Clear
8:58 PM 83.5 °F 89.7 °F 73.0 °F 71% 30.05 in 10.0 mi South 2.3 mph - 0.00 in   Clear
9:58 PM 82.6 °F 87.8 °F 72.5 °F 71% 30.06 in 10.0 mi South 3.5 mph - N/A   Clear
10:58 PM 81.0 °F 85.4 °F 72.3 °F 75% 30.07 in 10.0 mi SSE 3.5 mph - N/A   Clear
11:58 PM 76.1 °F - 72.3 °F 88% 30.07 in 10.0 mi East 2.3 mph - N/A   Clear